Location: Vihti�l�
(61.3833°N, 23.0667°E)
Time: 04:28:01
(UTC+00:00)

ATLAS 3B R/B - Pass Details

Date: 29 November 2020
Orbit: 1013 x 1182 km, 63.8° (Epoch: 08 January)

Event Time Altitude Azimuth Distance (km) Brightness Sun altitude
Exits shadow 03:30:35 43° 238° (WSW) 1,490 3.0 -24.2°
Maximum altitude 03:30:58 43° 230° (SW) 1,485 3.1 -24.2°
Drops below altitude 10° 03:37:33 10° 162° (SSE) 2,990 5.3 -23.4°
Sets 03:40:24 0° 156° (SSE) 3,971 6.0 -23.0°
